Location: Peebles
(55.6412°N, 3.1714°W)
Time: 22:46:47
(UTC+00:00)

Cosmos 2239 Rocket - Visible Passes

Search period start: 27 January 2022 00:00
Search period end: 06 February 2022 00:00
Orbit: 954 x 991 km, 82.9° (Epoch: 27 January)

Date Brightness Start Highest point End Pass type
(mag) Time Alt. Az. Time Alt. Az. Time Alt. Az.
27 Jan 7.4 05:06:26 10° E 05:09:16 14° ENE 05:12:07 10° NE visible
27 Jan 5.2 06:47:14 10° S 06:53:17 59° E 06:59:26 10° NNE visible
27 Jan 4.5 17:34:14 10° N 17:40:34 72° ENE 17:46:53 10° SSE visible
27 Jan 6.6 19:20:11 10° NNW 19:25:23 28° W 19:30:35 10° SW visible
28 Jan 7.0 05:28:48 10° SE 05:33:18 21° ENE 05:37:50 10° NNE visible
28 Jan 4.6 07:11:37 10° S 07:17:50 90° NW 07:24:09 10° NNE visible
28 Jan 4.8 17:58:52 10° NNW 18:05:11 76° W 18:11:30 10° S visible
28 Jan 7.2 19:45:29 10° NW 19:49:31 18° WNW 19:53:34 10° WSW visible
29 Jan 6.3 05:52:04 10° SE 05:57:29 33° E 06:02:57 10° NNE visible
29 Jan 5.5 18:23:37 10° NNW 18:29:40 49° W 18:35:43 10° SSW visible
29 Jan 7.6 20:11:50 10° NW 20:13:29 11° WNW 20:15:09 10° W visible
30 Jan 7.6 04:36:08 10° E 04:37:58 11° ENE 04:39:48 10° NE visible
30 Jan 5.4 06:15:52 10° SSE 06:21:49 51° E 06:27:51 10° NNE visible
30 Jan 6.4 18:48:31 10° NNW 18:54:00 32° W 18:59:28 10° SW visible
31 Jan 7.1 04:57:53 10° ESE 05:01:57 18° ENE 05:06:02 10° NE visible
31 Jan 4.7 06:40:06 10° S 06:46:18 79° E 06:52:36 10° NNE visible
31 Jan 4.7 17:27:19 10° NNW 17:33:41 87° W 17:40:02 10° S visible
31 Jan 7.1 19:13:40 10° NNW 19:18:11 21° WNW 19:22:42 10° WSW visible
01 Feb 6.5 05:20:55 10° SE 05:26:05 29° E 05:31:18 10° NNE visible
01 Feb 4.5 07:04:45 10° SSW 07:10:56 69° WNW 07:17:14 10° N visible
01 Feb 5.3 17:52:01 10° NNW 17:58:12 58° W 18:04:23 10° S visible
01 Feb 7.5 19:39:25 10° NW 19:42:13 13° WNW 19:45:00 10° W visible
02 Feb 5.7 05:44:32 10° SSE 05:50:22 44° E 05:56:16 10° NNE visible
02 Feb 6.2 18:16:52 10° NNW 18:22:36 37° W 18:28:18 10° SSW visible
03 Feb 7.3 04:27:05 10° ESE 04:30:37 16° ENE 04:34:10 10° NE visible
03 Feb 4.9 06:08:38 10° S 06:14:47 68° E 06:21:03 10° NNE visible
03 Feb 6.9 18:41:54 10° NNW 18:46:49 24° W 18:51:44 10° SW visible
04 Feb 6.7 04:49:50 10° SE 04:54:42 25° E 04:59:36 10° NNE visible
04 Feb 4.5 06:33:09 10° SSW 06:39:22 80° W 06:45:43 10° N visible
04 Feb 5.1 17:20:27 10° NNW 17:26:44 67° W 17:33:00 10° S visible
04 Feb 7.4 19:07:22 10° NW 19:10:54 16° WNW 19:14:27 10° WSW visible
05 Feb 5.9 05:13:17 10° SSE 05:18:55 38° E 05:24:40 10° NNE visible
05 Feb 4.6 06:58:03 10° SSW 07:04:07 53° WNW 07:10:18 10° N visible
05 Feb 5.9 17:45:14 10° NNW 17:51:10 43° W 17:57:04 10° SSW visible
